DLH7EL EDDS-EDDL

Flight info

Callsign DLH7EL
Flight time 0h 43m
Altitude 22000
Route TAGIK4B/25 TAGIK Z3 ABUMO N850 GISEM Z505 ARPEG Z850 ADEMI T854 DOMUX DOMUX1A
Aircraft A320/M-SDE3FGHIRWY/LB1

Departure

Time 2026-05-05 15:30
Airport Stuttgart Airport (EDDS)

Arrival

Time 2026-05-05 16:14
Airport Düsseldorf Airport (EDDL)
Time Latitude Longitude Altitude Speed Heading
2026-05-05 14:54 48.68743 9.19394 1311 ft 0 kts 164°
2026-05-05 15:20 48.68742 9.19395 1311 ft 0 kts 164°
2026-05-05 15:20 48.68727 9.19401 1310 ft 3 kts 163°
2026-05-05 15:20 48.68698 9.19415 1309 ft 5 kts 159°
2026-05-05 15:21 48.68686 9.19472 1307 ft 7 kts 79°
2026-05-05 15:21 48.68702 9.19556 1305 ft 9 kts 74°
2026-05-05 15:21 48.68721 9.19654 1302 ft 11 kts 74°
2026-05-05 15:21 48.68742 9.19767 1299 ft 12 kts 74°
2026-05-05 15:22 48.68771 9.19889 1296 ft 13 kts 60°
2026-05-05 15:22 48.68821 9.19990 1295 ft 11 kts 51°
2026-05-05 15:22 48.68851 9.20097 1293 ft 11 kts 74°
2026-05-05 15:22 48.68873 9.20214 1290 ft 12 kts 74°
2026-05-05 15:23 48.68897 9.20341 1287 ft 13 kts 74°
2026-05-05 15:23 48.68922 9.20476 1284 ft 14 kts 73°
2026-05-05 15:23 48.68955 9.20645 1279 ft 20 kts 74°
2026-05-05 15:23 48.68996 9.20863 1276 ft 23 kts 73°
2026-05-05 15:24 48.69045 9.21119 1269 ft 27 kts 74°
2026-05-05 15:24 48.69100 9.21412 1263 ft 31 kts 74°
2026-05-05 15:24 48.69161 9.21736 1256 ft 33 kts 74°
2026-05-05 15:24 48.69227 9.22082 1257 ft 34 kts 74°
2026-05-05 15:25 48.69287 9.22406 1240 ft 30 kts 74°
2026-05-05 15:25 48.69341 9.22700 1232 ft 27 kts 72°
2026-05-05 15:25 48.69390 9.22941 1227 ft 25 kts 74°
2026-05-05 15:25 48.69441 9.23212 1221 ft 28 kts 74°
2026-05-05 15:26 48.69499 9.23514 1215 ft 31 kts 74°
2026-05-05 15:26 48.69548 9.23772 1210 ft 22 kts 74°
2026-05-05 15:26 48.69586 9.23977 1205 ft 21 kts 74°
2026-05-05 15:26 48.69611 9.24139 1201 ft 11 kts 94°
2026-05-05 15:27 48.69580 9.24239 1196 ft 9 kts 119°
2026-05-05 15:27 48.69550 9.24290 1193 ft 5 kts 146°
2026-05-05 15:27 48.69536 9.24301 1192 ft 3 kts 156°
2026-05-05 15:27 48.69518 9.24310 1191 ft 0 kts 163°
2026-05-05 15:28 48.69506 9.24315 1191 ft 4 kts 164°
2026-05-05 15:28 48.69454 9.24331 1190 ft 8 kts 170°
2026-05-05 15:28 48.69409 9.24340 1190 ft 5 kts 175°
2026-05-05 15:28 48.69392 9.24325 1191 ft 1 kts 231°
2026-05-05 15:29 48.69386 9.24301 1191 ft 2 kts 255°
2026-05-05 15:29 48.69386 9.24299 1191 ft 0 kts 255°
2026-05-05 15:29 48.69368 9.24196 1193 ft 33 kts 255°
2026-05-05 15:30 48.69232 9.23483 1208 ft 104 kts 254°
2026-05-05 15:30 48.68979 9.22152 1238 ft 157 kts 254°
2026-05-05 15:30 48.68649 9.20417 1607 ft 176 kts 255°
2026-05-05 15:30 48.68309 9.18644 2411 ft 175 kts 253°
2026-05-05 15:31 48.67958 9.16839 2940 ft 187 kts 253°
2026-05-05 15:31 48.67577 9.14899 3290 ft 204 kts 253°
2026-05-05 15:31 48.67144 9.12712 3694 ft 226 kts 253°
2026-05-05 15:31 48.67052 9.10291 4380 ft 239 kts 284°
2026-05-05 15:32 48.67853 9.08118 5253 ft 246 kts 303°
2026-05-05 15:32 48.69180 9.06389 6093 ft 259 kts 331°
2026-05-05 15:32 48.70978 9.05521 6645 ft 281 kts 341°
2026-05-05 15:32 48.72873 9.04684 7516 ft 287 kts 340°
2026-05-05 15:33 48.74799 9.03767 8501 ft 292 kts 339°
2026-05-05 15:33 48.76720 9.02810 9403 ft 297 kts 338°
2026-05-05 15:33 48.78690 9.01805 10152 ft 305 kts 338°
2026-05-05 15:33 48.80764 9.00680 10446 ft 328 kts 336°
2026-05-05 15:34 48.82961 8.99393 10663 ft 351 kts 335°
2026-05-05 15:34 48.85295 8.97986 11019 ft 366 kts 335°
2026-05-05 15:34 48.87673 8.96549 11671 ft 372 kts 335°
2026-05-05 15:34 48.90094 8.95098 12402 ft 375 kts 335°
2026-05-05 15:35 48.92516 8.93660 13126 ft 379 kts 336°
2026-05-05 15:35 48.95067 8.92503 13816 ft 386 kts 346°
2026-05-05 15:35 48.97754 8.92073 14393 ft 393 kts 358°
2026-05-05 15:35 49.00511 8.92344 14964 ft 399 kts
2026-05-05 15:36 49.03281 8.92736 15554 ft 402 kts
2026-05-05 15:36 49.06079 8.93129 16140 ft 406 kts
2026-05-05 15:36 49.08895 8.93521 16709 ft 410 kts
2026-05-05 15:36 49.11743 8.93912 17282 ft 413 kts
2026-05-05 15:37 49.14621 8.94304 17811 ft 417 kts
2026-05-05 15:37 49.17523 8.94700 18332 ft 420 kts
2026-05-05 15:37 49.20451 8.95102 18806 ft 424 kts
2026-05-05 15:37 49.23405 8.95516 19285 ft 427 kts
2026-05-05 15:38 49.26365 8.95936 19748 ft 429 kts
2026-05-05 15:38 49.29315 8.96354 20229 ft 432 kts
2026-05-05 15:38 49.32352 8.96779 20716 ft 435 kts
2026-05-05 15:38 49.35376 8.97198 21188 ft 438 kts
2026-05-05 15:39 49.38424 8.97618 21654 ft 441 kts
2026-05-05 15:39 49.41484 8.98038 21814 ft 442 kts
2026-05-05 15:39 49.44592 8.98470 21845 ft 455 kts
2026-05-05 15:39 49.47779 8.98918 21871 ft 464 kts
2026-05-05 15:40 49.50997 8.99375 22363 ft 463 kts
2026-05-05 15:40 49.54207 8.99827 22807 ft 465 kts
2026-05-05 15:40 49.57439 9.00273 23208 ft 467 kts
2026-05-05 15:40 49.60680 9.00718 23577 ft 469 kts
2026-05-05 15:41 49.63942 9.01170 23796 ft 471 kts
2026-05-05 15:41 49.67212 9.01633 23841 ft 471 kts
2026-05-05 15:41 49.70461 9.02101 23840 ft 472 kts
2026-05-05 15:41 49.73721 9.02576 23837 ft 472 kts
2026-05-05 15:42 49.76949 9.03046 23838 ft 472 kts
2026-05-05 15:42 49.80223 9.03518 23834 ft 472 kts
2026-05-05 15:42 49.83528 9.03994 23835 ft 472 kts
2026-05-05 15:42 49.86762 9.04463 23833 ft 473 kts
2026-05-05 15:43 49.90018 9.04672 23835 ft 475 kts 358°
2026-05-05 15:43 49.93300 9.04126 23836 ft 475 kts 349°
2026-05-05 15:43 49.96485 9.02823 23836 ft 474 kts 340°
2026-05-05 15:43 49.99571 9.01015 23833 ft 474 kts 338°
2026-05-05 15:44 50.02665 8.99179 23833 ft 474 kts 338°
2026-05-05 15:44 50.05749 8.97349 23835 ft 474 kts 338°
2026-05-05 15:44 50.08825 8.95523 23831 ft 474 kts 338°
2026-05-05 15:44 50.11923 8.93685 23832 ft 474 kts 339°
2026-05-05 15:45 50.15082 8.92240 23832 ft 475 kts 347°
2026-05-05 15:45 50.18349 8.91437 23830 ft 476 kts 352°
2026-05-05 15:45 50.21637 8.90752 23829 ft 476 kts 352°
2026-05-05 15:45 50.24912 8.90068 23828 ft 476 kts 352°
2026-05-05 15:46 50.28197 8.89379 23822 ft 476 kts 352°
2026-05-05 15:46 50.31473 8.88691 23818 ft 476 kts 352°
2026-05-05 15:46 50.34753 8.88004 23820 ft 475 kts 352°
2026-05-05 15:46 50.38034 8.87319 23815 ft 475 kts 352°
2026-05-05 15:47 50.41310 8.86631 23813 ft 475 kts 352°
2026-05-05 15:47 50.43477 8.86175 23813 ft 475 kts 352°
2026-05-05 15:47 50.47856 8.85252 23811 ft 474 kts 352°
2026-05-05 15:47 50.51126 8.84562 23809 ft 474 kts 352°
2026-05-05 15:48 50.54401 8.83870 23806 ft 474 kts 351°
2026-05-05 15:48 50.57670 8.83175 23804 ft 474 kts 351°
2026-05-05 15:48 50.60873 8.82032 23801 ft 472 kts 341°
2026-05-05 15:48 50.63883 8.80149 23799 ft 470 kts 332°
2026-05-05 15:49 50.66702 8.77557 23796 ft 468 kts 323°
2026-05-05 15:49 50.69230 8.74386 23796 ft 466 kts 317°
2026-05-05 15:49 50.71690 8.71082 23795 ft 467 kts 317°
2026-05-05 15:49 50.74179 8.67748 23802 ft 468 kts 317°
2026-05-05 15:50 50.76657 8.64429 23801 ft 468 kts 317°
2026-05-05 15:50 50.79132 8.61111 23799 ft 467 kts 317°
2026-05-05 15:50 50.81616 8.57781 23797 ft 467 kts 317°
2026-05-05 15:50 50.84079 8.54476 23796 ft 467 kts 317°
2026-05-05 15:51 50.86550 8.51149 23790 ft 467 kts 317°
2026-05-05 15:51 50.89016 8.47816 23813 ft 466 kts 318°
2026-05-05 15:51 50.91482 8.44469 23805 ft 466 kts 317°
2026-05-05 15:51 50.93932 8.41137 23806 ft 466 kts 317°
2026-05-05 15:52 50.96395 8.37786 23801 ft 466 kts 317°
2026-05-05 15:52 50.98862 8.34436 23796 ft 466 kts 317°
2026-05-05 15:52 51.01376 8.31164 23803 ft 468 kts 322°
2026-05-05 15:52 51.04142 8.28414 23815 ft 471 kts 329°
2026-05-05 15:53 51.06993 8.25890 23809 ft 469 kts 329°
2026-05-05 15:53 51.08890 8.24204 23807 ft 469 kts 329°
2026-05-05 15:53 51.11728 8.21674 23803 ft 469 kts 329°
2026-05-05 15:53 51.14578 8.19133 23802 ft 469 kts 329°
2026-05-05 15:54 51.17425 8.16596 23808 ft 469 kts 329°
2026-05-05 15:54 51.20270 8.14059 23807 ft 469 kts 329°
2026-05-05 15:54 51.23120 8.11512 23807 ft 469 kts 329°
2026-05-05 15:54 51.25967 8.08962 23828 ft 469 kts 329°
2026-05-05 15:55 51.28812 8.06413 23824 ft 467 kts 329°
2026-05-05 15:55 51.31652 8.03862 23234 ft 468 kts 329°
2026-05-05 15:55 51.34502 8.01294 21874 ft 476 kts 329°
2026-05-05 15:55 51.37372 7.98706 21098 ft 471 kts 329°
2026-05-05 15:56 51.40203 7.96150 20374 ft 465 kts 329°
2026-05-05 15:56 51.42974 7.93521 19458 ft 461 kts 323°
2026-05-05 15:56 51.45416 7.90250 18409 ft 454 kts 313°
2026-05-05 15:56 51.47165 7.86138 17834 ft 435 kts 290°
2026-05-05 15:57 51.47790 7.81625 17440 ft 418 kts 269°
2026-05-05 15:57 51.47444 7.77082 16909 ft 407 kts 253°
2026-05-05 15:57 51.46525 7.72870 16365 ft 399 kts 245°
2026-05-05 15:57 51.45395 7.68839 15849 ft 393 kts 244°
2026-05-05 15:58 51.44287 7.64878 15326 ft 387 kts 245°
2026-05-05 15:58 51.43293 7.60882 14809 ft 383 kts 248°
2026-05-05 15:58 51.42438 7.56856 14276 ft 380 kts 252°
2026-05-05 15:58 51.41965 7.52706 13752 ft 380 kts 264°
2026-05-05 15:59 51.41993 7.48421 13292 ft 387 kts 270°
2026-05-05 15:59 51.42081 7.44108 12906 ft 386 kts 269°
2026-05-05 15:59 51.42122 7.39811 12827 ft 386 kts 269°
2026-05-05 15:59 51.42135 7.35505 12847 ft 387 kts 268°
2026-05-05 16:00 51.42135 7.31197 12784 ft 386 kts 268°
2026-05-05 16:00 51.42136 7.26882 11791 ft 392 kts 268°
2026-05-05 16:00 51.42078 7.22524 11223 ft 385 kts 262°
2026-05-05 16:00 51.41520 7.18471 11088 ft 361 kts 249°
2026-05-05 16:01 51.40485 7.14953 10853 ft 340 kts 236°
2026-05-05 16:01 51.39077 7.12082 10717 ft 318 kts 225°
2026-05-05 16:01 51.37579 7.09613 10592 ft 300 kts 225°
2026-05-05 16:01 51.36168 7.07284 10405 ft 286 kts 225°
2026-05-05 16:02 51.34805 7.05031 10139 ft 279 kts 225°
2026-05-05 16:02 51.33453 7.02796 9979 ft 281 kts 225°
2026-05-05 16:02 51.32098 7.00561 9877 ft 279 kts 225°
2026-05-05 16:02 51.30750 6.98341 9856 ft 277 kts 225°
2026-05-05 16:03 51.29401 6.96125 9699 ft 279 kts 225°
2026-05-05 16:03 51.28050 6.93909 9325 ft 277 kts 225°
2026-05-05 16:03 51.26710 6.91712 8952 ft 277 kts 225°
2026-05-05 16:03 51.25363 6.89504 8594 ft 275 kts 225°
2026-05-05 16:04 51.24051 6.87358 8239 ft 271 kts 225°
2026-05-05 16:04 51.22739 6.85213 7910 ft 261 kts 225°
2026-05-05 16:04 51.21540 6.83256 7856 ft 242 kts 225°
2026-05-05 16:04 51.20394 6.81304 7567 ft 239 kts 232°
2026-05-05 16:05 51.19396 6.79193 7237 ft 238 kts 232°
2026-05-05 16:05 51.18391 6.77085 6888 ft 239 kts 232°
2026-05-05 16:05 51.17389 6.74991 6526 ft 239 kts 232°
2026-05-05 16:05 51.16384 6.72890 6160 ft 239 kts 232°
2026-05-05 16:06 51.15381 6.70790 5770 ft 238 kts 232°
2026-05-05 16:06 51.14374 6.68685 5393 ft 239 kts 232°
2026-05-05 16:06 51.13359 6.66563 5065 ft 241 kts 233°
2026-05-05 16:06 51.12357 6.64469 5024 ft 235 kts 232°
2026-05-05 16:07 51.11364 6.62401 5027 ft 236 kts 232°
2026-05-05 16:07 51.10367 6.60332 4944 ft 237 kts 232°
2026-05-05 16:07 51.09455 6.58135 4597 ft 240 kts 249°
2026-05-05 16:07 51.09269 6.55521 4233 ft 242 kts 281°
2026-05-05 16:08 51.09970 6.53127 3885 ft 241 kts 313°
2026-05-05 16:08 51.11207 6.51339 3577 ft 239 kts 322°
2026-05-05 16:08 51.12570 6.49898 3290 ft 233 kts 340°
2026-05-05 16:08 51.14130 6.49497 3094 ft 225 kts
2026-05-05 16:09 51.15618 6.50198 2913 ft 223 kts 30°
2026-05-05 16:09 51.16754 6.51807 2742 ft 221 kts 52°
2026-05-05 16:09 51.17670 6.53716 2553 ft 216 kts 52°
2026-05-05 16:09 51.18559 6.55572 2386 ft 207 kts 52°
2026-05-05 16:10 51.19415 6.57355 2189 ft 199 kts 52°
2026-05-05 16:10 51.20232 6.59055 2029 ft 186 kts 51°
2026-05-05 16:10 51.20995 6.60644 1853 ft 178 kts 51°
2026-05-05 16:10 51.21739 6.62195 1682 ft 175 kts 51°
2026-05-05 16:11 51.22451 6.63682 1487 ft 161 kts 50°
2026-05-05 16:11 51.24273 6.67596 1142 ft 142 kts 52°
2026-05-05 16:12 51.24893 6.68809 1113 ft 142 kts 46°
2026-05-05 16:12 51.26092 6.71325 810 ft 143 kts 52°
2026-05-05 16:13 51.27885 6.75060 240 ft 140 kts 49°
2026-05-05 16:13 51.28472 6.76276 137 ft 133 kts 49°
2026-05-05 16:13 51.28951 6.77277 127 ft 89 kts 53°
2026-05-05 16:14 51.29295 6.78014 142 ft 11 kts 70°
2026-05-05 16:14 51.29245 6.78201 138 ft 4 kts 153°
2026-05-05 16:15 51.29244 6.78201 138 ft 0 kts 153°
2026-05-05 16:17 51.29218 6.78218 138 ft 2 kts 166°
2026-05-05 16:17 51.29172 6.78196 136 ft 10 kts 214°
2026-05-05 16:18 51.29069 6.77993 126 ft 14 kts 233°
2026-05-05 16:18 51.29012 6.77872 129 ft 13 kts 233°
2026-05-05 16:18 51.28911 6.77661 127 ft 11 kts 233°
2026-05-05 16:19 51.28863 6.77559 128 ft 14 kts 233°
2026-05-05 16:19 51.28805 6.77438 128 ft 15 kts 232°
2026-05-05 16:19 51.28644 6.77102 128 ft 18 kts 232°
2026-05-05 16:20 51.28502 6.76801 126 ft 12 kts 233°
2026-05-05 16:20 51.28378 6.76860 123 ft 9 kts 148°
2026-05-05 16:21 51.28256 6.76853 130 ft 8 kts 187°
2026-05-05 16:22 51.28151 6.76773 129 ft 4 kts 279°
2026-05-05 16:22 51.28154 6.76737 130 ft 0 kts 277°